This is the latest recevied weather packets stored in our database for station/object CA3PBK-13. If no packets are shown the sender has not sent any weather packets the latest 10 day(s).
| Time | Temp. | Humidity | Pressure | Rain* | Wind** | Luminosity | Snow |
|---|---|---|---|---|---|---|---|
| 1777727168 | 17.78° C | 1% | 929.7 hPa | 0 mm | - | - | - |
| 1777727046 | 17.78° C | 1% | 929.8 hPa | 0 mm | - | - | - |
| 1777726926 | 17.78° C | 1% | 929.8 hPa | 0 mm | - | - | - |
| 1777726806 | 17.22° C | 1% | 929.7 hPa | 0 mm | - | - | - |
| 1777726686 | 17.22° C | 1% | 929.7 hPa | 0 mm | - | - | - |
| 1777726567 | 17.22° C | 1% | 929.6 hPa | 0 mm | - | - | - |
| 1777726446 | 16.67° C | 1% | 929.6 hPa | 0 mm | - | - | - |
| 1777726326 | 16.67° C | 1% | 929.6 hPa | 0 mm | - | - | - |
| 1777726206 | 16.67° C | 1% | 929.6 hPa | 0 mm | - | - | - |
| 1777726087 | 16.11° C | 1% | 929.6 hPa | 0 mm | - | - | - |
| 1777725967 | 16.11° C | 1% | 929.5 hPa | 0 mm | - | - | - |
| 1777725846 | 15.56° C | 1% | 929.4 hPa | 0 mm | - | - | - |
| 1777725726 | 15° C | 1% | 929.3 hPa | 0 mm | - | - | - |
| 1777725606 | 15° C | 1% | 929.2 hPa | 0 mm | - | - | - |
| 1777725486 | 14.44° C | 1% | 929.1 hPa | 0 mm | - | - | - |
| 1777725367 | 13.89° C | 1% | 929.2 hPa | 0 mm | - | - | - |
| 1777725126 | 13.33° C | 1% | 929.2 hPa | 0 mm | - | - | - |
| 1777725006 | 12.78° C | 1% | 929.2 hPa | 0 mm | - | - | - |
| 1777724886 | 12.78° C | 1% | 929.2 hPa | 0 mm | - | - | - |
| 1777724767 | 12.78° C | 1% | 929.2 hPa | 0 mm | - | - | - |
| 1777724647 | 12.78° C | 1% | 929.3 hPa | 0 mm | - | - | - |
| 1777724526 | 13.33° C | 1% | 929.5 hPa | 0 mm | - | - | - |
| 1777724406 | 13.33° C | 1% | 929.6 hPa | 0 mm | - | - | - |
| 1777724286 | 12.78° C | 1% | 929.5 hPa | 0 mm | - | - | - |
| 1777724167 | 12.78° C | 1% | 929.5 hPa | 0 mm | - | - | - |
* Rain latest hour (hover to see other rain measurements)
** Current wind speed in m/s (hover to see current wind gust speed)